THORAD DELTA 1 DEB, 42596

Orbit data source: Space-Track

THORAD DELTA 1 DEB, 42596 is space debris in SSO originally from a launch on Fri, 15 Nov 1974 UTC launched from the Air Force Western Test Range (AFWTR). Debris objects in space refer to the collection of defunct objects orbiting the Earth. Examples of debris include non-operational satellites, rocket bodies, and fragments generated from explosions, collisions, or faulty payload assembly.

Loading next visibility...
Identifier
42596, 1974-089FM
Orbit
SSO
Country
Flag of USUS
Related business
Manufacturer
Unknown
Mission
Spacecraft
Bus & Motor
Unknown
Mass
Unknown
Launch date (UTC)
1974-11-15 (51 years ago)
Launch vehicle
Unknown
Launch site
Air Force Western Test Range (AFWTR)
Object type
Payload
Rocket body
Debris
Shape & HBR
Unknown shape, 0.1 m
Radar Cross Section
Small (<0.1 m²)

Expand to show TLE details & history
Last TLE update: 2 days ago

TLE from 2 days ago
0 THORAD DELTA 1 DEB
1 42596U 74089FM  25287.30157706 -.00000038  00000-0  19564-4 0  9998
2 42596 101.4841 291.4222 0144340 245.7386 132.8561 12.25690792532188
Epoch: 2025-10-14T07:14Z
TLE epoch observation values (Epoch: 2025-10-14T07:14:16.257Z)
Latitude
19.38138°
Longitude
155.68372°
Altitude
1,648.866 km
Speed
7.014 km/s
True Right ascension
19h 09m 22s
True Declination
19° 17' 09"
Sunlit
Object was in daylight at epoch
Visualization orbit readout
Latitude
Unknown
Longitude
Unknown
Altitude
Unknown
Speed
Unknown
Apparent Right ascension
Unknown
Apparent Declination
Unknown
Sunlit
N/A
Visualization observer readout
Local Sidereal Time
07:52:29
Azimuth
Unknown
Elevation
Unknown
Doppler factor
Unknown
Orbital elements
Apogee altitude
1,680.071 km
Perigee altitude
1,450.756 km
Semi-major axis
7,943.551 km
Eccentricity
0.01443
Inclination
101.4841°
RAAN
291.4222°
Arg. of periapsis
245.7386°
True anomaly
134.05381°
Mean anomaly
132.8561°
Eccentric anomaly
133.45642°
Mean motion
3.06564 °/min
Orbital period
117.43 mins
BSTAR
0.000019564
Loading maneuver chart data...
Computing Atmospheric mass density...

Documentation

Showing up to 5 results
|